Notices

What's New in latest Release from April 7th, 2021:

- Updated Glossary, including Speed of Maximum Gust, and Total Hourly Precipitation

- Updated national and regional climate services offices contacts and prices information

- Addition of station inventory lists for 1981-2010, 1971-2000, and 1961-1990 Normals.

If you haven't already, please take our survey and provide feedback about our website: https://eccc.sondage-survey.ca/f/LanguageSelection.aspx?s=442ca660-fcf1-47c0-95a9-59707d6fd709

Hourly Data Report for May 10, 2020

TRENTON A
ONTARIO
Current Station Operator: DND

44°07'00.000" N
77°32'00.000" W
86.30 m
6158875
71621
YTR

Download Data

Hourly Data (May 2020)
Hourly Data Report for May 10, 2020
TIME
LST
Temp Definition
°C
Dew Point Definition
°C
Rel Hum Definition
%
Precip. Amount Definition
mm

Wind Dir Definition
10's deg

Wind Spd Definition
km/h
Visibility Definition
km
Stn Press Definition
kPa
Hmdx Definition


Wind Chill Definition


Weather Definition


00:00 2.6 -5.7 51   24 13 24.1 100.47     Cloudy
01:00 3.1 -4.8 54   25 13 24.1 100.45     Mostly Cloudy
02:00 2.3 -4.7 57   27 15 24.1 100.47     Mainly Clear
03:00 1.9 -5.2 56   24 18 24.1 100.46     Mainly Clear
04:00 2.0 -4.5 59   26 17 24.1 100.45     Mainly Clear
05:00 0.0 -4.8 67   25 13 24.1 100.46   -4 Mainly Clear
06:00 2.0 -3.7 64   25 11 24.1 100.46     Mainly Clear
07:00 3.8 -2.9 60   24 11 24.1 100.48     Mainly Clear
08:00 5.3 -3.4 52   30 21 24.1 100.47     Mainly Clear
09:00 6.6 -2.5 51   29 24 24.1 100.42     Mainly Clear
10:00 8.3 -2.4 46   27 26 24.1 100.39     Mostly Cloudy
11:00 6.5 -0.9 59   23 28 24.1 100.39     Mostly Cloudy
12:00 5.8 -1.0 61   23 28 24.1 100.38     Mostly Cloudy
13:00 5.5 -0.2 67   22 26 24.1 100.36     Rain Showers
14:00 5.4 1.0 73   22 21 24.1 100.35     Rain Showers
15:00 7.1 2.3 72   24 18 24.1 100.30     Cloudy
16:00 8.2 1.1 61   28 24 24.1 100.26     Cloudy
17:00 7.6 2.4 70   29 17 16.1 100.27     Rain Showers
18:00 6.7 2.9 77   27 13 9.7 100.25     Rain Showers
19:00 6.2 3.1 81   26 9 9.7 100.26     Rain Showers
20:00 6.0 3.4 83   22 9 24.1 100.28     Cloudy
21:00 5.8 3.8 87   22 8 24.1 100.28     Rain Showers
22:00 5.4 3.8 89   20 11 24.1 100.25     Cloudy
23:00 5.1 3.5 89   23 9 9.7 100.21     Rain

Notes on Data Quality.

Legend

  • E = Estimated
  • M = Missing
  • NA = Not Available*
  • [empty] = Indicates an unobserved value
Date modified: